Weather History for Marshfield, MA

Change the Weather History Date:

Wednesday, December 19, 2012

  Actual Average (KPYM) Record (KPYM)
Temperature  
Mean Temperature 42 °F -  
Max Temperature 44 °F 38 °F 59 °F (1984)
Min Temperature 39 °F 19 °F 3 °F (1989)
Degree Days  
Heating Degree Days 24    
Moisture  
Dew Point 34 °F    
Average Humidity 71    
Maximum Humidity 87    
Minimum Humidity 61    
Precipitation  
Precipitation 0.00 in - - ()
Sea Level Pressure  
Sea Level Pressure 29.67 in    
Wind  
Wind Speed 10 mph (WNW)    
Max Wind Speed 17 mph    
Max Gust Speed 26 mph    
Visibility 10 miles    
Events Rain , Thunderstorm    
Averages and records for this station are not official NWS values.
T = Trace of Precipitation, MM = Missing Value Source: NWS Daily Summary

Daily Weather History Graph

Daily Weather History Graph

Search for Another Location

Airport:

Trip Planner

Search our weather history database for the weather conditions in past years. The results will help you decide how hot, cold, wet, or windy it might be!

Date:

Astronomy

Dec. 19, 2012 Rise Set
Actual Time 7:06 AM EST 4:13 PM EST
Civil Twilight 6:35 AM EST 4:45 PM EST
Nautical Twilight 5:59 AM EST 5:20 PM EST
Astronomical Twilight 5:25 AM EST 5:54 PM EST
Moon 11:07 AM EST (12/19) 11:45 PM EST (12/19)
Length of Visible Light 10h 10m
Length of Day
9h 06m
Waxing Crescent, 45% of the Moon is Illuminated
Dec 19
Waxing Crescent
Dec 20
First Quarter
Dec 28
Full
Jan 4
Last Quarter
Jan 11
New

Hourly Weather History & Observations

Time (EST) Temp. Windchill Dew Point Humidity Pressure Visibility Wind Dir Wind Speed Gust Speed Precip Events Conditions
12:15 AM 44.6 °F 40.2 °F 41.0 °F 87% 29.44 in 10.0 mi West 8.1 mph - N/A   Partly Cloudy
12:35 AM 44.6 °F 40.7 °F 39.2 °F 81% 29.44 in 10.0 mi West 6.9 mph - N/A   Scattered Clouds
12:55 AM 42.8 °F 39.3 °F 39.2 °F 87% 29.44 in 10.0 mi West 5.8 mph - N/A   Scattered Clouds
1:15 AM 44.6 °F 39.7 °F 39.2 °F 81% 29.45 in 10.0 mi West 9.2 mph - N/A   Mostly Cloudy
1:35 AM 44.6 °F 39.2 °F 39.2 °F 81% 29.45 in 10.0 mi West 10.4 mph 17.3 mph N/A   Overcast
1:55 AM 44.6 °F 39.7 °F 39.2 °F 81% 29.45 in 10.0 mi West 9.2 mph 17.3 mph N/A   Overcast
2:15 AM 44.6 °F 39.7 °F 39.2 °F 81% 29.45 in 10.0 mi West 9.2 mph 16.1 mph N/A   Overcast
2:35 AM 44.6 °F 38.4 °F 39.2 °F 81% 29.45 in 10.0 mi West 12.7 mph 19.6 mph N/A   Overcast
2:55 AM 44.6 °F 39.7 °F 39.2 °F 81% 29.45 in 10.0 mi West 9.2 mph 18.4 mph N/A   Overcast
3:15 AM 44.6 °F 39.7 °F 37.4 °F 76% 29.45 in 10.0 mi West 9.2 mph - N/A   Overcast
3:35 AM 44.6 °F 39.7 °F 37.4 °F 76% 29.46 in 10.0 mi West 9.2 mph 17.3 mph N/A   Overcast
3:55 AM 44.6 °F 39.2 °F 37.4 °F 76% 29.46 in 10.0 mi West 10.4 mph 17.3 mph N/A   Overcast
4:15 AM 42.8 °F 37.0 °F 35.6 °F 76% 29.47 in 10.0 mi West 10.4 mph 19.6 mph N/A   Overcast
4:35 AM 42.8 °F 37.5 °F 35.6 °F 76% 29.47 in 10.0 mi West 9.2 mph 16.1 mph N/A   Mostly Cloudy
4:55 AM 42.8 °F 37.0 °F 35.6 °F 76% 29.47 in 10.0 mi West 10.4 mph - N/A   Mostly Cloudy
5:15 AM 42.8 °F 37.5 °F 35.6 °F 76% 29.48 in 10.0 mi West 9.2 mph 16.1 mph N/A   Mostly Cloudy
5:35 AM 42.8 °F 36.6 °F 35.6 °F 76% 29.49 in 10.0 mi West 11.5 mph 16.1 mph N/A   Overcast
5:55 AM 42.8 °F 37.5 °F 35.6 °F 76% 29.49 in 10.0 mi West 9.2 mph 18.4 mph N/A   Overcast
6:15 AM 42.8 °F 36.6 °F 33.8 °F 70% 29.50 in 10.0 mi West 11.5 mph 20.7 mph N/A   Overcast
6:35 AM 42.8 °F 36.2 °F 33.8 °F 70% 29.50 in 10.0 mi West 12.7 mph 23.0 mph N/A   Light Drizzle
6:55 AM 41.0 °F 34.3 °F 33.8 °F 76% 29.51 in 10.0 mi West 11.5 mph 19.6 mph N/A   Scattered Clouds
7:15 AM 41.0 °F 33.9 °F 33.8 °F 76% 29.51 in 10.0 mi WNW 12.7 mph 19.6 mph N/A   Light Drizzle
7:35 AM 41.0 °F 33.9 °F 35.6 °F 81% 29.52 in 10.0 mi WNW 12.7 mph 21.9 mph N/A   Light Drizzle
7:55 AM 41.0 °F 34.3 °F 35.6 °F 81% 29.52 in 10.0 mi West 11.5 mph 20.7 mph N/A   Light Drizzle
8:15 AM 41.0 °F 33.9 °F 35.6 °F 81% 29.53 in 10.0 mi WNW 12.7 mph 23.0 mph N/A Rain Light Rain
8:35 AM 41.0 °F 34.7 °F 35.6 °F 81% 29.54 in 10.0 mi West 10.4 mph 21.9 mph N/A   Light Drizzle
8:55 AM 41.0 °F 32.8 °F 35.6 °F 81% 29.54 in 10.0 mi West 16.1 mph 23.0 mph N/A   Light Drizzle
9:15 AM 42.8 °F 36.2 °F 33.8 °F 70% 29.55 in 10.0 mi WNW 12.7 mph 23.0 mph N/A   Light Drizzle
9:35 AM 42.8 °F 35.1 °F 33.8 °F 70% 29.56 in 10.0 mi WNW 16.1 mph 21.9 mph N/A   Overcast
9:55 AM 42.8 °F 36.2 °F 33.8 °F 70% 29.57 in 10.0 mi WNW 12.7 mph 26.5 mph N/A   Overcast
10:15 AM 42.8 °F 36.6 °F 33.8 °F 70% 29.57 in 10.0 mi WNW 11.5 mph 26.5 mph N/A   Overcast
10:35 AM 44.6 °F 37.8 °F 33.8 °F 66% 29.57 in 10.0 mi WNW 15.0 mph 24.2 mph N/A   Light Drizzle
10:55 AM 42.8 °F 34.8 °F 33.8 °F 70% 29.57 in 10.0 mi WNW 17.3 mph 25.3 mph N/A   Overcast
11:15 AM 44.6 °F 37.4 °F 32.0 °F 61% 29.58 in 10.0 mi WNW 16.1 mph 24.2 mph N/A   Overcast
11:35 AM 44.6 °F 38.4 °F 32.0 °F 61% 29.59 in 10.0 mi WNW 12.7 mph 23.0 mph N/A   Mostly Cloudy
11:55 AM 44.6 °F 40.2 °F 33.8 °F 66% 29.59 in 10.0 mi WNW 8.1 mph 18.4 mph N/A   Overcast
12:15 PM 44.6 °F 38.4 °F 33.8 °F 66% 29.60 in 10.0 mi NW 12.7 mph 19.6 mph N/A   Overcast
12:35 PM 44.6 °F 40.2 °F 33.8 °F 66% 29.62 in 10.0 mi WNW 8.1 mph - N/A   Overcast
12:55 PM 44.6 °F 38.1 °F 32.0 °F 61% 29.63 in 10.0 mi WNW 13.8 mph 23.0 mph N/A   Overcast
1:15 PM 44.6 °F 38.4 °F 32.0 °F 61% 29.64 in 10.0 mi WNW 12.7 mph 19.6 mph N/A   Overcast
1:35 PM 44.6 °F 38.4 °F 32.0 °F 61% 29.65 in 10.0 mi NW 12.7 mph 23.0 mph N/A   Overcast
1:55 PM 44.6 °F 38.4 °F 32.0 °F 61% 29.66 in 10.0 mi NW 12.7 mph 23.0 mph N/A Thunderstorm Mostly Cloudy
2:15 PM 44.6 °F 39.7 °F 32.0 °F 61% 29.67 in 10.0 mi NW 9.2 mph 24.2 mph N/A   Overcast
2:35 PM 44.6 °F 38.4 °F 32.0 °F 61% 29.69 in 10.0 mi NW 12.7 mph 25.3 mph N/A   Overcast
2:55 PM 44.6 °F 38.8 °F 32.0 °F 61% 29.71 in 10.0 mi WNW 11.5 mph 23.0 mph N/A   Overcast
3:15 PM 44.6 °F 38.8 °F 32.0 °F 61% 29.72 in 10.0 mi WNW 11.5 mph 24.2 mph N/A   Overcast
3:35 PM 44.6 °F 39.2 °F 32.0 °F 61% 29.73 in 10.0 mi NW 10.4 mph 21.9 mph N/A   Overcast
3:55 PM 44.6 °F 39.7 °F 32.0 °F 61% 29.74 in 10.0 mi WNW 9.2 mph 16.1 mph N/A   Overcast
4:15 PM 44.6 °F 40.2 °F 32.0 °F 61% 29.75 in 10.0 mi NW 8.1 mph 19.6 mph N/A   Overcast
4:35 PM 44.6 °F 39.2 °F 32.0 °F 61% 29.77 in 10.0 mi NW 10.4 mph 21.9 mph N/A   Overcast
4:55 PM 44.6 °F 38.4 °F 32.0 °F 61% 29.79 in 10.0 mi WNW 12.7 mph 23.0 mph N/A   Overcast
5:15 PM 44.6 °F 38.1 °F 32.0 °F 61% 29.80 in 10.0 mi WNW 13.8 mph 18.4 mph N/A   Overcast
5:35 PM 42.8 °F 35.8 °F 32.0 °F 66% 29.81 in 10.0 mi NW 13.8 mph 25.3 mph N/A   Overcast
5:55 PM 42.8 °F 36.2 °F 32.0 °F 66% 29.83 in 10.0 mi NW 12.7 mph 18.4 mph N/A   Overcast
6:15 PM 42.8 °F 36.6 °F 32.0 °F 66% 29.85 in 10.0 mi NW 11.5 mph 18.4 mph N/A   Overcast
6:35 PM 42.8 °F 37.0 °F 32.0 °F 66% 29.87 in 10.0 mi NW 10.4 mph 20.7 mph N/A   Overcast
6:55 PM 42.8 °F 36.6 °F 32.0 °F 66% 29.89 in 10.0 mi WNW 11.5 mph 21.9 mph N/A   Mostly Cloudy
7:15 PM 42.8 °F 38.0 °F 32.0 °F 66% 29.90 in 10.0 mi WNW 8.1 mph 23.0 mph N/A   Mostly Cloudy
7:35 PM 42.8 °F 38.0 °F 32.0 °F 66% 29.91 in 10.0 mi NW 8.1 mph 17.3 mph N/A   Overcast
7:55 PM 42.8 °F 36.2 °F 32.0 °F 66% 29.92 in 10.0 mi NW 12.7 mph 19.6 mph N/A   Overcast
8:15 PM 42.8 °F 36.6 °F 32.0 °F 66% 29.94 in 10.0 mi NW 11.5 mph 18.4 mph N/A   Overcast
8:35 PM 42.8 °F 36.2 °F 32.0 °F 66% 29.95 in 10.0 mi WNW 12.7 mph 19.6 mph N/A   Overcast
8:55 PM 41.0 °F 34.3 °F 32.0 °F 70% 29.95 in 10.0 mi NW 11.5 mph 17.3 mph N/A   Scattered Clouds
9:15 PM 41.0 °F 35.2 °F 32.0 °F 70% 29.96 in 10.0 mi NW 9.2 mph 17.3 mph N/A   Mostly Cloudy
9:35 PM 41.0 °F 34.3 °F 32.0 °F 70% 29.97 in 10.0 mi NW 11.5 mph 20.7 mph N/A   Overcast
9:55 PM 41.0 °F 35.8 °F 32.0 °F 70% 29.98 in 10.0 mi NW 8.1 mph 16.1 mph N/A   Overcast
10:15 PM 41.0 °F 34.7 °F 32.0 °F 70% 29.99 in 10.0 mi NW 10.4 mph 18.4 mph N/A   Overcast
10:35 PM 39.2 °F 33.0 °F 32.0 °F 75% 30.00 in 10.0 mi NW 9.2 mph 18.4 mph N/A   Overcast
10:55 PM 39.2 °F 32.5 °F 33.8 °F 81% 30.01 in 10.0 mi NW 10.4 mph - N/A   Overcast
11:15 PM 39.2 °F 33.6 °F 33.8 °F 81% 30.02 in 10.0 mi WNW 8.1 mph 19.6 mph N/A   Overcast
11:35 PM 39.2 °F 33.0 °F 32.0 °F 75% 30.02 in 10.0 mi WNW 9.2 mph - N/A   Overcast
11:55 PM 39.2 °F 34.2 °F 32.0 °F 75% 30.02 in 10.0 mi NW 6.9 mph - N/A   Mostly Cloudy